Aérodrome :
LOGIN :

S'inscrire | Disclaimer

   EN    FR    IT 

 










Légende :    VFR   VFR Marginal   IFR   IFR Intensif   IFR Très Intensif
Visi : 
Plafond : 
>= 8 km
>= 3000ft
5 à 8 km
1000 à 3000 ft
1500m à 5 km
500 à 1000 ft
800 à 1500m
200 à 500 ft
< 800m
< 200 ft
Symboles :   Orages  Brouillard  Fortes neiges  Fortes précipitations  Vent > 20 kt
SIGMETs :   Divers  Orages  Givrage  Turbulence  Onde Orograph.  Cendres Volcan.







- Altitude de l'aérodrome : 195 ft
- Voir les cartes d'approche


LFMY - Salon de Provence

DERNIER METAR :
  • 220900Z AUTO 33005KT 260V010 CAVOK 21/10 Q1015

METARs EXPIRÉS :
  • 220830Z AUTO 31006KT 270V340 CAVOK 20/10 Q1015
  • 220800Z AUTO VRB04KT CAVOK 19/10 Q1015 NOSIG
  • 220730Z AUTO 35008KT CAVOK 18/11 Q1015 NOSIG
  • 220700Z AUTO 34009KT CAVOK 17/10 Q1015 NOSIG
  • 220630Z AUTO 36007KT CAVOK 17/10 Q1015 NOSIG

TAF TAF LFMY
Valide du 22 à 09h jusqu'au 23 à 09h UTC


220800Z 2209/2309 32010KT CAVOK
Pas de NOTAMs connus pour ce terrain.



MET'MAP, la Météo Aéronautique d'un coup d'oeil ! - Copyright ORBIFLY Décembre 2007 - Disclaimer

ORBIFLY MET'MAP TEAM :

Programmation & Développement : Alexandra Zaïnal
Conception & Développement : Baudouin d'Aumeries
Co-Programmation & Développement : Marc-Olivier Méhu
Soutien technique & logistique : Manuel Goepfert

Contact : metmap@orbifly.com




SOURCES & CREDITS :

   NOAA